EJA647 KLKP-KALB

Flight info

Callsign EJA647
Flight time 0h 22m
Altitude 22000
Route SLK ALB
Aircraft CL60/M-SBDE1E2E3FGHIJ1J4J5J7M3RWXYZ/LB1V1D1

Departure

Time 2026-05-08 14:02
Airport Lake Placid Airport (KLKP)

Arrival

Time 2026-05-08 14:24
Airport Albany International Airport (KALB)
Time Latitude Longitude Altitude Speed Heading
2026-05-08 13:42 44.26448 -73.96551 1744 ft 0 kts 43°
2026-05-08 13:58 44.26450 -73.96549 1743 ft 2 kts 67°
2026-05-08 13:58 44.26424 -73.96531 1744 ft 5 kts 152°
2026-05-08 13:59 44.26417 -73.96524 1744 ft 0 kts 142°
2026-05-08 13:59 44.26414 -73.96521 1744 ft 3 kts 138°
2026-05-08 13:59 44.26404 -73.96441 1742 ft 12 kts 82°
2026-05-08 13:59 44.26418 -73.96298 1740 ft 17 kts 82°
2026-05-08 14:00 44.26427 -73.96159 1736 ft 14 kts 99°
2026-05-08 14:00 44.26358 -73.96010 1729 ft 21 kts 125°
2026-05-08 14:00 44.26263 -73.95827 1720 ft 23 kts 125°
2026-05-08 14:00 44.26175 -73.95657 1708 ft 16 kts 129°
2026-05-08 14:01 44.26113 -73.95580 1704 ft 5 kts 121°
2026-05-08 14:01 44.26126 -73.95562 1702 ft 5 kts 321°
2026-05-08 14:01 44.26137 -73.95582 1703 ft 3 kts 304°
2026-05-08 14:01 44.26364 -73.96023 1730 ft 109 kts 305°
2026-05-08 14:02 44.26943 -73.97141 2064 ft 166 kts 305°
2026-05-08 14:02 44.27676 -73.98547 2909 ft 197 kts 305°
2026-05-08 14:02 44.28498 -74.00120 3627 ft 202 kts 305°
2026-05-08 14:02 44.29313 -74.01681 4254 ft 199 kts 303°
2026-05-08 14:03 44.29767 -74.03509 4876 ft 219 kts 270°
2026-05-08 14:03 44.29388 -74.05708 5717 ft 250 kts 245°
2026-05-08 14:03 44.28199 -74.07507 6675 ft 269 kts 214°
2026-05-08 14:03 44.26353 -74.08141 7765 ft 292 kts 181°
2026-05-08 14:04 44.24338 -74.07765 9325 ft 300 kts 175°
2026-05-08 14:04 44.22301 -74.07321 10817 ft 308 kts 176°
2026-05-08 14:04 44.20058 -74.06870 11501 ft 341 kts 176°
2026-05-08 14:04 44.17632 -74.06408 12464 ft 360 kts 177°
2026-05-08 14:05 44.15084 -74.05923 13594 ft 372 kts 178°
2026-05-08 14:05 44.12522 -74.05435 14776 ft 380 kts 178°
2026-05-08 14:05 44.09917 -74.04941 16000 ft 384 kts 178°
2026-05-08 14:05 44.07250 -74.04436 17208 ft 389 kts 177°
2026-05-08 14:06 44.04590 -74.03935 18289 ft 394 kts 177°
2026-05-08 14:06 44.01967 -74.03443 19278 ft 400 kts 177°
2026-05-08 14:06 43.99211 -74.02927 20327 ft 403 kts 176°
2026-05-08 14:06 43.96456 -74.02412 21248 ft 408 kts 176°
2026-05-08 14:07 43.93560 -74.01875 21712 ft 417 kts 176°
2026-05-08 14:07 43.90558 -74.01316 21833 ft 416 kts 176°
2026-05-08 14:07 43.87690 -74.00781 21847 ft 413 kts 176°
2026-05-08 14:07 43.84830 -74.00250 21852 ft 412 kts 176°
2026-05-08 14:08 43.82037 -73.99365 21860 ft 417 kts 165°
2026-05-08 14:08 43.79296 -73.97971 21848 ft 417 kts 163°
2026-05-08 14:08 43.76567 -73.96576 21858 ft 417 kts 164°
2026-05-08 14:08 43.73863 -73.95200 21863 ft 418 kts 164°
2026-05-08 14:09 43.71124 -73.93810 21865 ft 418 kts 164°
2026-05-08 14:09 43.68376 -73.92418 21813 ft 419 kts 164°
2026-05-08 14:09 43.65647 -73.91038 21396 ft 420 kts 164°
2026-05-08 14:09 43.62928 -73.89664 20890 ft 416 kts 164°
2026-05-08 14:10 43.60200 -73.88287 20364 ft 412 kts 164°
2026-05-08 14:10 43.57554 -73.86954 19841 ft 409 kts 164°
2026-05-08 14:10 43.54851 -73.85595 19299 ft 406 kts 164°
2026-05-08 14:10 43.52225 -73.84276 18769 ft 403 kts 164°
2026-05-08 14:11 43.49608 -73.82963 18241 ft 401 kts 164°
2026-05-08 14:11 43.46984 -73.81649 17717 ft 399 kts 164°
2026-05-08 14:11 43.44382 -73.80346 17267 ft 397 kts 164°
2026-05-08 14:11 43.41809 -73.79060 16719 ft 393 kts 165°
2026-05-08 14:12 43.39224 -73.77769 16207 ft 391 kts 165°
2026-05-08 14:12 43.36694 -73.76508 15693 ft 388 kts 164°
2026-05-08 14:12 43.34176 -73.75253 15186 ft 385 kts 165°
2026-05-08 14:12 43.31660 -73.74001 14677 ft 383 kts 165°
2026-05-08 14:13 43.29166 -73.72762 14172 ft 380 kts 165°
2026-05-08 14:13 43.26680 -73.71526 13663 ft 374 kts 165°
2026-05-08 14:13 43.24278 -73.70332 13178 ft 366 kts 165°
2026-05-08 14:13 43.21934 -73.69167 12705 ft 357 kts 165°
2026-05-08 14:14 43.19617 -73.68018 12233 ft 348 kts 164°
2026-05-08 14:14 43.17362 -73.66901 11777 ft 341 kts 165°
2026-05-08 14:14 43.15150 -73.65805 11330 ft 334 kts 165°
2026-05-08 14:14 43.12990 -73.64738 10894 ft 329 kts 164°
2026-05-08 14:15 43.10852 -73.63682 10463 ft 323 kts 164°
2026-05-08 14:15 43.08737 -73.62639 10033 ft 319 kts 164°
2026-05-08 14:15 43.06659 -73.61615 9608 ft 315 kts 164°
2026-05-08 14:15 43.04633 -73.60618 9196 ft 310 kts 164°
2026-05-08 14:16 43.02604 -73.59619 8787 ft 306 kts 164°
2026-05-08 14:16 43.00603 -73.58635 8387 ft 301 kts 163°
2026-05-08 14:16 42.98638 -73.57670 7984 ft 297 kts 163°
2026-05-08 14:16 42.96713 -73.56724 7598 ft 292 kts 163°
2026-05-08 14:17 42.94814 -73.55793 7211 ft 288 kts 163°
2026-05-08 14:17 42.92931 -73.54870 6833 ft 283 kts 163°
2026-05-08 14:17 42.91079 -73.53963 6454 ft 279 kts 162°
2026-05-08 14:17 42.89263 -73.53073 6098 ft 274 kts 162°
2026-05-08 14:18 42.87442 -73.52220 5712 ft 269 kts 168°
2026-05-08 14:18 42.85620 -73.51968 5369 ft 261 kts 182°
2026-05-08 14:18 42.83799 -73.51914 5025 ft 256 kts 181°
2026-05-08 14:18 42.82014 -73.51850 4684 ft 252 kts 181°
2026-05-08 14:19 42.80276 -73.51787 4343 ft 249 kts 181°
2026-05-08 14:19 42.78560 -73.51793 4007 ft 243 kts 190°
2026-05-08 14:19 42.77000 -73.52574 3575 ft 236 kts 218°
2026-05-08 14:19 42.75943 -73.54175 3328 ft 222 kts 245°
2026-05-08 14:20 42.75500 -73.56119 3129 ft 211 kts 265°
2026-05-08 14:20 42.75437 -73.58048 3037 ft 198 kts 269°
2026-05-08 14:20 42.75398 -73.59856 2919 ft 188 kts 269°
2026-05-08 14:20 42.75357 -73.61597 2817 ft 175 kts 269°
2026-05-08 14:21 42.75317 -73.63245 2561 ft 175 kts 269°
2026-05-08 14:21 42.75279 -73.64851 2375 ft 167 kts 269°
2026-05-08 14:21 42.75245 -73.66388 2143 ft 159 kts 269°
2026-05-08 14:21 42.75212 -73.67851 1914 ft 149 kts 269°
2026-05-08 14:22 42.75182 -73.69245 1741 ft 150 kts 270°
2026-05-08 14:22 42.75151 -73.70679 1532 ft 151 kts 269°
2026-05-08 14:22 42.75121 -73.72027 1366 ft 129 kts 269°
2026-05-08 14:22 42.75095 -73.73204 1173 ft 123 kts 269°
2026-05-08 14:23 42.75070 -73.74348 989 ft 118 kts 268°
2026-05-08 14:23 42.75044 -73.75469 831 ft 118 kts 268°
2026-05-08 14:23 42.75024 -73.76566 667 ft 117 kts 268°
2026-05-08 14:23 42.74997 -73.77681 504 ft 117 kts 268°
2026-05-08 14:24 42.74973 -73.78787 341 ft 117 kts 268°
2026-05-08 14:24 42.74947 -73.79824 284 ft 95 kts 268°
2026-05-08 14:24 42.74932 -73.80475 277 ft 45 kts 267°
2026-05-08 14:24 42.74892 -73.80622 275 ft 12 kts 192°
2026-05-08 14:25 42.74814 -73.80621 276 ft 11 kts 179°
2026-05-08 14:25 42.74719 -73.80621 276 ft 15 kts 180°
2026-05-08 14:25 42.74610 -73.80614 277 ft 16 kts 179°
2026-05-08 14:25 42.74487 -73.80609 277 ft 18 kts 179°
2026-05-08 14:26 42.74347 -73.80602 277 ft 19 kts 178°
2026-05-08 14:26 42.74224 -73.80598 280 ft 15 kts 180°
2026-05-08 14:26 42.74119 -73.80591 281 ft 16 kts 178°
2026-05-08 14:26 42.74027 -73.80589 281 ft 6 kts 187°
2026-05-08 14:27 42.74006 -73.80647 280 ft 7 kts 311°
2026-05-08 14:27 42.74030 -73.80682 279 ft 7 kts 263°
2026-05-08 14:27 42.74029 -73.80692 279 ft 0 kts 253°